TimeCST,TemperatureF,Dew PointF,Humidity,Sea Level PressureIn,VisibilityMPH,Wind Direction,Wind SpeedMPH,Gust SpeedMPH,PrecipitationIn,Events,Conditions,WindDirDegrees,DateUTC
12:41 AM,28.0,25.0,88,29.90,4.0,South,9.2,-,N/A,,Overcast,180,2014-01-10 06:41:00
12:54 AM,28.0,25.0,88,29.94,4.0,South,11.5,-,N/A,,Overcast,180,2014-01-10 06:54:00
1:12 AM,28.9,26.1,89,29.87,4.0,South,10.4,-,N/A,,Overcast,170,2014-01-10 07:12:00
1:54 AM,28.9,27.0,92,29.90,3.0,South,10.4,-,N/A,,Overcast,170,2014-01-10 07:54:00
2:54 AM,30.0,28.0,92,29.88,3.0,South,9.2,-,N/A,,Overcast,170,2014-01-10 08:54:00
3:54 AM,30.0,28.9,96,29.83,3.0,SSE,9.2,-,N/A,,Overcast,160,2014-01-10 09:54:00
4:54 AM,30.9,28.9,92,29.81,4.0,SSE,9.2,-,N/A,,Overcast,160,2014-01-10 10:54:00
5:54 AM,30.9,28.9,92,29.78,3.0,SSE,6.9,-,N/A,,Overcast,160,2014-01-10 11:54:00
6:19 AM,30.9,28.9,92,29.73,2.5,SSE,6.9,-,N/A,,Overcast,150,2014-01-10 12:19:00
6:32 AM,30.9,28.9,92,29.72,2.5,SSE,5.8,-,N/A,,Overcast,150,2014-01-10 12:32:00
6:54 AM,30.9,30.0,96,29.75,2.5,SSE,6.9,-,N/A,,Overcast,150,2014-01-10 12:54:00
7:54 AM,30.9,28.9,92,29.75,2.5,SSE,8.1,-,N/A,,Overcast,150,2014-01-10 13:54:00
8:21 AM,30.9,30.0,96,29.70,1.5,SSE,9.2,-,N/A,,Overcast,150,2014-01-10 14:21:00
8:54 AM,30.9,30.0,96,29.74,1.0,South,6.9,-,N/A,,Overcast,170,2014-01-10 14:54:00
9:31 AM,32.0,30.9,96,29.69,0.8,SSE,6.9,-,N/A,,Overcast,160,2014-01-10 15:31:00
9:54 AM,32.0,30.9,96,29.73,0.8,SSE,6.9,-,N/A,,Overcast,160,2014-01-10 15:54:00
10:28 AM,32.0,30.9,96,29.67,1.0,SSE,8.1,-,N/A,,Overcast,150,2014-01-10 16:28:00
10:54 AM,32.0,30.9,96,29.69,2.5,SSE,6.9,-,N/A,,Overcast,160,2014-01-10 16:54:00
11:06 AM,33.1,32.0,96,29.65,3.0,South,4.6,-,N/A,,Overcast,170,2014-01-10 17:06:00
11:54 AM,33.1,32.0,96,29.64,4.0,South,4.6,-,N/A,,Overcast,170,2014-01-10 17:54:00
12:54 PM,34.0,30.9,89,29.60,4.0,Calm,Calm,-,N/A,,Overcast,0,2014-01-10 18:54:00
1:01 PM,34.0,32.0,92,29.57,4.0,Calm,Calm,-,N/A,,Overcast,0,2014-01-10 19:01:00
1:11 PM,34.0,30.9,89,29.57,4.0,SSE,4.6,-,N/A,,Overcast,160,2014-01-10 19:11:00
1:20 PM,34.0,32.0,92,29.57,4.0,South,6.9,-,N/A,,Overcast,170,2014-01-10 19:20:00
1:32 PM,34.0,32.0,92,29.57,4.0,SSE,6.9,-,N/A,,Overcast,160,2014-01-10 19:32:00
1:54 PM,34.0,32.0,92,29.59,4.0,South,3.5,-,N/A,,Overcast,190,2014-01-10 19:54:00
2:12 PM,34.0,32.0,92,29.56,5.0,South,3.5,-,N/A,,Overcast,190,2014-01-10 20:12:00
2:39 PM,35.1,32.0,89,29.55,7.0,SSW,4.6,-,N/A,,Overcast,200,2014-01-10 20:39:00
2:54 PM,35.1,30.9,85,29.58,8.0,Calm,Calm,-,N/A,,Overcast,0,2014-01-10 20:54:00
3:08 PM,35.1,30.0,82,29.55,10.0,WSW,4.6,-,N/A,,Overcast,240,2014-01-10 21:08:00
3:24 PM,34.0,30.0,85,29.56,10.0,WSW,5.8,-,N/A,,Overcast,250,2014-01-10 21:24:00
3:54 PM,34.0,30.9,89,29.59,4.0,West,4.6,-,0.00,Snow,Light Snow,280,2014-01-10 21:54:00
4:31 PM,34.0,30.9,89,29.57,4.0,Calm,Calm,-,0.00,Snow,Light Snow,0,2014-01-10 22:31:00
4:54 PM,34.0,32.0,92,29.60,6.0,West,3.5,-,0.00,,Overcast,270,2014-01-10 22:54:00
5:04 PM,33.1,30.9,92,29.57,6.0,West,3.5,-,N/A,,Overcast,260,2014-01-10 23:04:00
5:19 PM,33.1,32.0,96,29.57,6.0,Calm,Calm,-,N/A,,Overcast,0,2014-01-10 23:19:00
5:54 PM,33.1,30.9,92,29.61,6.0,West,3.5,-,N/A,,Overcast,280,2014-01-10 23:54:00
6:39 PM,32.0,30.0,92,29.58,5.0,West,3.5,-,N/A,,Mostly Cloudy,280,2014-01-11 00:39:00
6:54 PM,32.0,30.0,92,29.61,5.0,West,3.5,-,N/A,,Scattered Clouds,280,2014-01-11 00:54:00
7:54 PM,30.0,28.9,96,29.64,3.0,West,3.5,-,N/A,,Clear,280,2014-01-11 01:54:00
8:04 PM,27.0,26.1,96,29.61,2.0,West,3.5,-,N/A,,Clear,270,2014-01-11 02:04:00
8:18 PM,28.0,25.0,88,29.62,1.5,West,3.5,-,N/A,,Scattered Clouds,270,2014-01-11 02:18:00
8:54 PM,28.9,28.0,96,29.66,1.5,Calm,Calm,-,N/A,,Overcast,0,2014-01-11 02:54:00
9:04 PM,28.9,28.0,96,29.62,2.5,Calm,Calm,-,N/A,,Mostly Cloudy,0,2014-01-11 03:04:00
9:54 PM,27.0,26.1,96,29.66,0.8,West,3.5,-,N/A,,Clear,270,2014-01-11 03:54:00
10:05 PM,25.0,24.1,96,29.63,0.2,Calm,Calm,-,N/A,Fog,Light Freezing Fog,0,2014-01-11 04:05:00
10:12 PM,24.1,21.9,91,29.63,1.0,Calm,Calm,-,N/A,Fog,Light Freezing Fog,0,2014-01-11 04:12:00
10:54 PM,24.1,21.9,91,29.68,4.0,West,3.5,-,N/A,,Clear,260,2014-01-11 04:54:00
11:54 PM,24.1,21.9,91,29.69,4.0,Calm,Calm,-,N/A,,Clear,0,2014-01-11 05:54:00